Temperature
15 14 13 13 12 12 12 11 11 11 11 11 11 11 10 10 10 9 9 9 9 9 8 8 8 7 7 6 6 6 5 4 4 4 3 3 2 2 2 1 1 0 -0
14 14 13 12 12 12 11 11 11 11 11 11 11 10 10 10 9 9 9 9 9 8 8 8 7 7 7 6 6 5 5 4 3 3 3 2 2 1 1 0 -0 -1 -1
14 14 13 12 12 12 11 11 11 11 11 11 10 10 10 10 9 9 9 9 8 8 8 7 7 7 6 6 5 5 4 3 3 2 2 1 1 0 -0 -1 -1 -2 -2
14 13 13 12 12 12 11 11 11 11 11 10 10 10 10 9 9 9 9 8 8 8 7 7 7 6 6 5 4 4 3 3 2 2 1 1 -0 -1 -2 -2 -2 -3 -3
14 13 13 12 12 12 11 11 11 10 10 10 10 9 9 9 9 9 8 8 8 7 7 7 6 6 5 5 4 3 3 2 1 1 0 -1 -1 -2 -2 -3 -3 -4 -4
13 13 13 12 12 11 11 11 10 10 10 10 9 9 9 9 9 8 8 8 7 7 7 6 6 5 5 4 4 3 2 1 0 -0 -1 -2 -2 -3 -3 -4 -4 -5 -5
13 13 12 12 12 11 11 10 10 10 9 9 9 9 9 8 8 8 8 7 7 7 6 6 5 5 4 4 3 2 1 1 -0 -1 -2 -2 -3 -4 -4 -5 -5 -5 -6
13 13 13 12 11 11 11 10 10 9 9 9 9 9 8 8 8 7 7 7 6 6 6 5 5 4 4 3 2 2 1 -0 -1 -2 -2 -3 -4 -4 -5 -5 -6 -6 -6
13 13 12 12 11 11 10 10 10 9 9 9 9 8 8 8 7 7 7 6 6 5 5 4 4 3 3 2 1 1 0 -1 -1 -2 -3 -3 -4 -5 -5 -6 -6 -6 -7
13 13 12 12 11 11 10 10 9 9 9 8 8 8 8 7 7 7 6 6 6 5 4 4 3 2 2 1 1 0 -1 -1 -2 -3 -3 -4 -5 -5 -6 -6 -7 -7 -8
13 12 12 12 11 11 10 10 9 9 8 8 8 7 7 7 6 6 6 5 5 4 4 3 2 2 1 0 -0 -1 -2 -3 -3 -4 -4 -5 -5 -6 -6 -7 -7 -8 -8
12 12 12 11 11 10 10 9 9 8 8 8 7 7 7 6 6 5 5 5 4 4 3 2 2 1 0 -0 -1 -2 -3 -3 -4 -4 -5 -5 -6 -6 -7 -7 -8 -8 -8
12 12 11 11 10 10 10 9 9 8 8 8 7 7 6 6 5 5 4 4 3 3 2 2 1 0 -0 -1 -2 -3 -3 -4 -4 -5 -5 -6 -7 -7 -7 -8 -8 -8 -8
12 11 11 11 10 9 9 9 8 8 8 7 7 6 6 5 5 4 4 3 3 2 2 1 0 -1 -1 -2 -3 -3 -4 -4 -5 -5 -6 -7 -7 -8 -8 -8 -9 -9 -9
11 11 10 10 10 9 8 8 8 8 8 8 7 7 6 6 5 4 4 3 2 2 1 0 -0 -1 -2 -3 -3 -4 -4 -5 -5 -6 -7 -7 -7 -8 -8 -9 -9 -10 -10
11 10 10 9 9 8 8 7 7 7 6 6 6 6 5 5 4 4 3 2 2 1 0 -0 -1 -2 -2 -3 -4 -4 -5 -5 -6 -7 -7 -8 -8 -9 -9 -9 -10 -10 -10
11 10 10 9 9 8 8 8 7 6 6 5 5 5 5 4 4 3 2 2 1 0 -0 -1 -2 -2 -3 -4 -4 -5 -5 -6 -7 -7 -8 -8 -9 -9 -10 -10 -10 -11 -11
10 10 10 10 9 9 8 8 8 7 6 5 4 4 4 3 3 2 2 1 1 -0 -1 -1 -2 -3 -3 -4 -5 -5 -6 -6 -7 -8 -8 -9 -9 -10 -10 -10 -11 -11 -11
9 9 9 9 8 8 8 7 7 6 6 5 4 4 3 3 2 2 1 1 0 -1 -1 -2 -3 -3 -4 -4 -5 -6 -6 -7 -7 -8 -8 -9 -10 -10 -10 -11 -11 -11 -11
8 9 9 8 8 8 7 7 6 6 6 5 4 4 3 2 2 1 1 0 -0 -1 -2 -2 -3 -4 -4 -5 -5 -6 -7 -7 -8 -8 -9 -9 -10 -10 -10 -11 -11 -11 -11
8 7 8 8 8 8 7 7 6 6 5 5 4 3 3 2 2 1 0 -0 -1 -2 -2 -3 -3 -4 -5 -5 -6 -6 -7 -8 -8 -9 -9 -9 -10 -10 -10 -11 -11 -11 -11
7 7 7 7 7 7 7 6 6 6 5 4 3 2 2 1 1 0 -0 -1 -2 -2 -3 -3 -4 -5 -5 -6 -6 -7 -7 -8 -8 -9 -9 -9 -10 -10 -10 -11 -11 -11 -11
7 7 7 7 7 6 6 6 5 5 4 4 3 2 1 1 0 -0 -1 -1 -2 -3 -3 -4 -4 -5 -6 -6 -6 -7 -7 -8 -8 -9 -9 -10 -10 -10 -10 -11 -11 -11 -11
6 7 7 7 6 6 6 5 5 4 4 3 2 2 1 1 -0 -1 -1 -2 -3 -3 -4 -4 -5 -5 -6 -6 -7 -7 -8 -8 -9 -9 -9 -10 -10 -10 -11 -11 -11 -11 -11
6 7 7 7 6 6 6 5 5 4 3 3 2 1 1 -0 -1 -1 -2 -2 -3 -4 -4 -5 -5 -6 -6 -7 -7 -7 -8 -8 -9 -9 -10 -10 -10 -11 -11 -11 -11 -11 -11
6 6 6 6 6 6 5 5 4 3 3 2 1 1 0 -1 -1 -2 -2 -3 -3 -4 -5 -5 -6 -6 -7 -7 -7 -8 -8 -8 -9 -9 -10 -10 -10 -11 -11 -11 -11 -11 -11
Wind_Speed
15 14 13 14 13 12 11 11 11 11 11 12 12 11 11 10 9 9 8 8 7 6 5 6 5 4 3 3 2 2 2 2 4 4 3 3 3 4 6 8 10 11 12
13 13 13 13 13 12 11 11 11 11 11 11 11 11 10 10 10 10 9 8 8 7 6 6 5 3 3 3 2 3 3 3 3 5 4 3 4 4 4 5 7 10 11
13 13 13 13 13 13 12 11 11 11 11 11 11 11 10 9 9 9 8 8 7 6 6 6 5 4 4 2 2 2 2 2 2 3 4 3 3 4 4 5 6 6 10
13 13 14 13 13 12 11 11 11 11 11 11 10 10 9 9 8 8 7 7 6 5 5 5 5 5 4 3 2 2 1 1 2 2 4 4 4 4 4 4 5 4 6
13 13 13 12 12 11 11 11 11 11 11 10 10 9 9 7 7 8 7 7 7 6 5 5 5 5 3 3 2 2 1 1 1 2 3 4 4 4 4 4 5 5 6
13 12 12 12 12 12 12 11 11 11 10 11 10 10 9 7 10 11 9 7 7 7 6 5 5 4 3 2 1 1 1 1 1 1 2 3 4 4 3 4 4 6 5
12 12 13 13 13 12 12 12 12 11 10 10 10 10 9 9 12 11 10 7 7 6 6 5 4 3 3 2 1 1 1 2 2 1 2 3 4 4 4 4 4 5 6
12 13 13 13 13 13 13 12 11 10 10 10 10 10 9 9 12 12 11 8 7 6 6 5 5 3 3 3 2 2 1 2 3 2 2 3 3 3 2 3 4 5 5
13 13 14 14 14 14 14 12 11 10 9 9 10 10 10 9 12 12 11 7 6 6 6 5 5 4 3 4 3 2 1 2 4 6 6 7 8 9 8 4 4 5 6
13 13 14 14 14 14 13 12 10 10 10 10 9 9 10 9 11 12 11 6 7 6 5 5 6 5 4 4 3 2 0 2 2 3 5 6 6 7 9 4 2 4 5
13 13 13 13 14 14 12 11 12 11 11 10 10 9 8 10 11 12 11 6 6 6 5 4 3 5 5 4 3 1 1 2 2 2 3 3 3 3 3 4 3 2 4
14 14 14 14 13 13 14 12 12 13 13 11 10 9 7 8 10 11 11 9 9 6 5 4 4 6 5 4 3 3 4 5 3 2 2 3 3 3 3 4 6 6 5
15 14 14 14 12 13 14 14 13 11 10 10 9 9 7 6 7 12 12 11 11 7 5 7 7 6 5 3 3 4 5 3 2 2 2 3 3 3 3 3 5 6 8
16 15 14 14 13 12 10 11 11 11 10 10 10 9 8 7 6 6 6 7 9 7 6 7 7 6 4 3 3 3 2 1 1 1 2 3 3 3 3 3 4 4 4
16 15 14 13 13 12 9 7 9 7 10 12 10 10 10 8 8 12 9 6 6 6 6 4 3 2 2 2 2 2 2 2 2 2 2 3 3 4 4 4 3 4 4
16 15 13 12 12 12 12 11 13 11 14 14 13 12 9 12 16 15 13 12 11 11 7 4 3 2 2 1 1 1 1 1 2 2 2 3 3 4 4 5 4 4 5
16 15 13 13 13 13 12 13 12 12 15 15 16 16 15 17 17 15 14 13 11 10 5 4 3 2 2 1 1 0 1 1 1 2 2 3 3 4 4 5 5 5 5
15 16 15 13 13 13 12 12 12 13 11 8 10 16 17 17 16 15 15 11 6 5 4 3 3 2 2 1 1 0 1 1 2 2 2 3 3 4 4 5 5 6 6
15 13 13 12 12 12 12 12 11 12 11 10 9 10 14 15 14 13 11 5 5 4 3 3 3 2 2 1 1 0 0 1 2 2 2 3 3 3 4 5 5 9 7
12 17 16 14 13 13 12 12 12 12 11 10 10 9 9 8 6 6 5 4 4 4 4 3 3 2 2 1 1 0 1 1 2 2 2 3 3 3 4 5 5 5 5
13 15 18 15 12 13 12 12 12 12 11 10 8 10 13 8 7 7 5 5 4 4 4 3 2 2 2 2 1 1 1 2 2 2 2 3 3 4 4 5 5 5 5
13 13 12 13 12 12 12 11 11 11 12 11 9 10 14 7 6 6 5 5 4 4 3 3 2 2 2 2 2 1 1 2 2 2 2 3 3 4 4 4 5 5 5
13 14 13 12 12 16 14 11 11 11 11 10 10 9 8 7 6 6 6 5 4 4 3 3 2 1 1 1 1 1 2 2 2 2 2 3 3 4 4 5 5 6 6
14 15 15 14 13 12 12 12 11 11 11 10 9 8 8 7 6 6 6 5 4 4 3 3 3 2 2 1 1 2 3 4 4 4 4 4 4 4 4 5 5 6 5
14 14 14 14 13 13 13 12 12 11 11 10 9 8 8 7 7 6 5 5 5 4 3 3 2 2 2 2 3 3 4 5 6 6 5 4 4 5 5 5 5 5 5
13 14 13 12 12 12 13 12 12 11 10 10 9 8 8 8 7 6 5 5 4 3 3 2 2 3 3 3 4 4 5 6 7 8 6 4 4 4 4 4 5 5 5
Wind_Direction
178 177 177 179 180 179 180 178 172 169 167 171 174 175 176 176 174 172 174 174 179 183 180 186 200 190 185 194 196 204 214 211 251 277 281 297 312 303 307 301 296 298 301
174 171 173 172 172 176 177 173 167 166 166 166 167 170 173 172 171 172 176 174 179 186 185 182 191 175 182 187 192 212 225 226 236 272 289 298 293 297 301 300 305 306 306
165 166 168 169 171 174 173 167 163 160 158 158 161 165 165 166 166 168 169 171 176 177 171 175 178 169 186 183 191 212 232 253 255 271 286 297 306 317 317 313 312 310 314
162 165 168 171 170 168 164 160 158 155 153 153 155 156 156 156 158 156 155 158 161 159 158 163 164 167 175 176 191 211 226 261 286 292 297 310 313 323 330 317 317 315 314
159 162 164 160 157 155 154 153 149 147 147 145 144 143 144 147 151 150 152 154 154 151 148 149 149 146 151 161 170 191 186 223 283 291 296 311 312 331 322 316 314 312 306
157 157 153 151 151 152 150 146 142 140 141 142 144 143 143 145 147 148 150 149 148 148 147 141 141 137 139 153 201 211 178 206 262 285 290 300 303 308 312 321 320 326 316
152 150 149 148 148 148 146 144 145 144 142 142 141 140 140 143 146 146 143 141 137 138 137 135 128 124 120 116 123 46 2 347 329 299 286 287 297 305 315 313 313 312 300
150 151 150 149 147 146 146 147 145 143 144 142 140 138 136 141 145 145 139 128 124 124 126 129 128 122 116 111 100 78 43 0 336 328 276 281 301 302 302 313 309 312 302
155 157 155 152 150 149 150 149 145 142 140 140 138 137 136 140 143 143 137 127 123 121 119 117 121 123 111 97 97 89 22 338 340 337 337 335 336 337 345 357 345 336 321
160 157 154 152 151 150 149 144 141 140 137 132 128 131 134 137 141 140 133 128 125 121 113 111 110 111 108 103 107 108 3 308 339 345 343 341 345 346 347 355 336 324 320
150 148 149 150 148 146 142 141 139 135 131 128 124 121 124 130 136 136 132 129 134 128 124 118 114 112 105 98 88 98 337 360 11 357 342 340 345 341 337 334 318 293 296
146 146 147 147 145 143 140 138 137 137 134 132 126 118 114 124 131 135 130 123 125 125 129 127 120 114 102 88 71 33 25 30 31 13 356 341 333 327 324 323 319 306 287
145 147 146 143 141 143 143 143 142 142 141 141 137 134 129 123 129 132 129 124 120 117 122 123 117 109 95 76 55 46 44 46 31 7 338 322 317 317 325 327 323 318 309
148 147 146 144 141 138 139 144 147 149 146 145 145 142 137 134 135 136 132 124 119 114 113 116 111 103 92 79 65 54 48 35 22 339 320 318 326 334 332 327 323 324 321
148 147 146 143 140 134 126 126 137 144 153 152 154 151 150 152 155 149 142 135 134 130 120 104 93 97 86 73 64 57 41 19 8 349 344 335 333 337 333 332 326 328 322
151 150 149 145 139 134 124 102 85 108 120 124 133 136 137 140 141 139 135 133 133 133 119 120 124 121 118 106 77 37 22 6 356 347 338 334 335 333 328 329 329 325 320
155 152 150 147 145 142 138 132 120 96 96 111 124 129 133 137 137 136 133 131 132 130 115 125 132 133 129 121 109 75 346 343 351 341 333 334 334 330 329 327 325 323 319
150 150 149 148 147 146 143 139 138 136 129 114 118 128 132 134 135 135 134 127 125 118 119 133 138 136 131 124 113 70 354 346 344 336 330 326 323 323 324 322 321 319 319
150 149 145 142 140 140 138 135 135 133 133 131 125 127 131 131 131 135 135 128 136 136 132 134 136 135 132 127 114 69 341 319 322 320 316 316 316 315 313 314 316 322 324
146 143 143 142 140 140 139 138 138 138 138 140 143 143 139 132 133 137 130 128 133 136 137 138 138 138 139 141 138 141 305 306 310 302 299 304 309 311 310 309 313 315 315
143 143 139 138 142 143 143 143 142 141 142 143 144 151 151 144 145 144 142 139 140 141 140 140 141 143 147 152 151 188 266 280 285 291 295 301 307 309 307 306 307 307 312
142 143 144 142 140 140 139 140 140 140 141 139 139 145 149 137 138 140 140 139 136 136 138 138 141 150 155 161 163 188 252 274 282 288 294 301 305 305 303 304 307 310 313
140 139 137 136 135 138 136 136 137 138 139 140 141 141 144 141 140 139 139 137 134 130 128 128 135 140 149 167 184 201 227 254 270 276 288 296 297 299 301 302 303 309 313
141 141 140 139 138 140 139 139 138 138 138 139 141 143 143 140 138 137 137 135 133 129 132 138 148 165 179 207 224 232 245 259 271 275 271 273 282 288 291 296 298 301 303
142 142 142 143 142 141 140 139 139 139 139 141 142 142 140 137 137 138 139 138 136 136 140 147 160 179 199 225 240 249 261 271 276 274 266 263 268 276 282 288 292 296 297
141 140 140 140 140 142 142 142 142 141 141 141 141 141 141 141 143 144 144 142 140 141 147 161 178 197 219 243 257 261 271 280 284 283 275 261 259 272 279 282 290 294 296
Height
1419 1425 1430 1436 1441 1447 1452 1457 1462 1466 1470 1474 1477 1481 1485 1488 1492 1494 1497 1499 1501 1503 1504 1505 1506 1506 1506 1506 1506 1505 1504 1503 1500 1498 1498 1496 1493 1491 1488 1485 1482 1479 1476
1414 1419 1425 1431 1437 1442 1447 1452 1457 1462 1466 1469 1473 1477 1481 1484 1487 1490 1492 1495 1497 1498 1499 1500 1501 1501 1501 1501 1501 1500 1499 1498 1496 1493 1491 1490 1487 1485 1482 1479 1476 1473 1470
1409 1415 1420 1426 1432 1437 1442 1448 1453 1457 1462 1465 1469 1473 1476 1480 1483 1485 1488 1490 1492 1494 1495 1496 1496 1497 1497 1496 1496 1495 1494 1493 1491 1489 1486 1484 1482 1479 1476 1473 1471 1468 1465
1404 1410 1415 1421 1427 1433 1438 1444 1448 1453 1457 1461 1465 1469 1473 1476 1479 1482 1484 1486 1488 1490 1491 1492 1492 1492 1492 1492 1491 1491 1490 1488 1487 1484 1482 1479 1477 1474 1471 1468 1464 1462 1459
1400 1406 1411 1417 1423 1429 1434 1440 1445 1449 1453 1458 1462 1465 1469 1472 1475 1478 1480 1482 1484 1485 1487 1487 1488 1488 1488 1488 1487 1486 1485 1484 1482 1479 1477 1474 1472 1469 1466 1463 1459 1456 1453
1396 1402 1408 1414 1420 1425 1431 1436 1441 1446 1450 1454 1458 1461 1465 1468 1471 1474 1476 1478 1480 1481 1482 1483 1484 1484 1484 1484 1483 1482 1481 1480 1477 1475 1473 1471 1468 1466 1462 1459 1456 1452 1447
1393 1399 1405 1411 1416 1422 1427 1432 1437 1442 1447 1451 1455 1458 1461 1465 1468 1470 1473 1475 1476 1478 1479 1479 1480 1480 1480 1480 1479 1478 1477 1476 1474 1473 1470 1467 1465 1462 1459 1456 1453 1449 1445
1391 1396 1402 1407 1413 1418 1424 1429 1434 1439 1443 1448 1451 1455 1458 1462 1465 1467 1470 1472 1473 1474 1475 1476 1476 1476 1476 1476 1475 1474 1473 1472 1470 1468 1467 1464 1462 1459 1456 1453 1450 1446 1442
1388 1393 1398 1404 1409 1415 1420 1425 1431 1436 1440 1445 1449 1452 1456 1459 1462 1464 1467 1468 1470 1471 1472 1472 1473 1473 1473 1472 1471 1470 1469 1468 1467 1465 1463 1461 1458 1456 1453 1450 1446 1442 1437
1385 1390 1396 1401 1407 1412 1417 1423 1428 1433 1438 1442 1446 1450 1453 1456 1459 1462 1463 1465 1466 1468 1468 1469 1470 1469 1469 1468 1468 1467 1466 1464 1463 1461 1459 1457 1455 1452 1450 1447 1443 1440 1435
1383 1388 1394 1399 1405 1410 1415 1421 1426 1430 1435 1439 1443 1447 1451 1454 1456 1459 1460 1462 1463 1464 1465 1466 1466 1466 1466 1465 1464 1464 1463 1461 1459 1458 1456 1454 1451 1449 1446 1444 1441 1438 1435
1381 1386 1391 1396 1402 1408 1413 1418 1423 1428 1432 1437 1441 1444 1448 1451 1454 1456 1458 1459 1461 1462 1462 1463 1463 1463 1463 1462 1462 1461 1460 1458 1456 1455 1452 1450 1448 1445 1443 1440 1438 1435 1433
1378 1383 1388 1394 1399 1405 1410 1415 1420 1425 1429 1433 1437 1441 1445 1448 1451 1453 1455 1456 1458 1459 1460 1460 1460 1460 1460 1460 1459 1458 1457 1455 1453 1452 1449 1447 1445 1443 1440 1438 1435 1432 1430
1374 1379 1385 1390 1396 1402 1407 1412 1417 1422 1426 1430 1434 1438 1442 1445 1448 1450 1452 1454 1455 1456 1456 1457 1458 1458 1458 1457 1456 1455 1454 1453 1451 1449 1447 1445 1443 1440 1438 1435 1432 1429 1426
1370 1375 1381 1386 1392 1398 1404 1410 1415 1420 1424 1428 1432 1436 1439 1442 1445 1448 1450 1451 1452 1453 1453 1454 1455 1455 1455 1454 1454 1452 1451 1450 1449 1447 1445 1443 1440 1438 1436 1433 1430 1427 1424
1365 1371 1376 1382 1388 1394 1400 1406 1413 1419 1423 1428 1432 1435 1438 1441 1443 1445 1447 1449 1450 1450 1451 1451 1452 1452 1452 1452 1451 1450 1449 1448 1446 1445 1443 1441 1438 1436 1434 1431 1429 1426 1423
1360 1365 1371 1378 1384 1390 1396 1402 1408 1415 1421 1425 1429 1433 1436 1438 1441 1443 1445 1446 1447 1448 1449 1449 1450 1450 1450 1449 1448 1448 1447 1445 1444 1442 1440 1439 1437 1434 1432 1429 1427 1424 1421
1357 1363 1368 1374 1380 1387 1393 1399 1405 1410 1416 1421 1426 1430 1433 1436 1438 1440 1442 1444 1444 1445 1446 1447 1447 1447 1447 1447 1446 1445 1444 1443 1441 1440 1438 1436 1435 1432 1430 1428 1425 1423 1420
1354 1359 1365 1372 1378 1385 1391 1397 1403 1409 1413 1418 1422 1427 1431 1433 1436 1438 1439 1441 1442 1443 1444 1445 1445 1445 1445 1444 1444 1443 1442 1440 1439 1438 1436 1434 1433 1431 1429 1427 1424 1422 1419
1351 1357 1362 1369 1376 1382 1389 1395 1400 1406 1411 1415 1420 1423 1427 1430 1433 1435 1437 1439 1440 1441 1442 1442 1442 1442 1442 1442 1441 1440 1439 1438 1437 1435 1434 1432 1431 1429 1427 1425 1423 1421 1418
1348 1355 1361 1367 1373 1380 1386 1392 1398 1403 1408 1413 1418 1422 1425 1428 1430 1433 1434 1436 1437 1438 1439 1440 1440 1440 1440 1439 1439 1438 1437 1436 1434 1433 1432 1430 1429 1427 1426 1424 1422 1420 1417
1346 1352 1358 1365 1372 1378 1384 1390 1396 1401 1406 1411 1415 1419 1423 1426 1428 1430 1432 1434 1435 1436 1437 1437 1438 1438 1437 1437 1436 1435 1434 1433 1432 1431 1429 1428 1427 1425 1424 1422 1420 1418 1416
1344 1350 1357 1364 1370 1377 1383 1389 1394 1399 1404 1409 1413 1417 1420 1423 1426 1428 1430 1431 1433 1434 1434 1435 1435 1435 1435 1434 1434 1433 1432 1431 1430 1428 1427 1426 1425 1424 1422 1421 1419 1417 1415
1343 1349 1355 1362 1368 1375 1381 1387 1392 1397 1402 1407 1411 1415 1418 1421 1423 1426 1428 1429 1430 1431 1432 1433 1433 1433 1432 1432 1431 1430 1429 1428 1427 1426 1425 1424 1423 1422 1420 1419 1417 1416 1414
1342 1348 1354 1360 1367 1373 1379 1385 1390 1395 1400 1404 1408 1412 1416 1419 1421 1423 1425 1427 1428 1429 1430 1430 1430 1430 1430 1429 1429 1428 1427 1426 1425 1423 1422 1422 1420 1419 1418 1417 1416 1414 1412
1341 1347 1353 1359 1366 1371 1377 1382 1388 1393 1398 1402 1406 1410 1413 1416 1419 1421 1423 1424 1425 1426 1427 1427 1427 1427 1427 1427 1426 1425 1424 1423 1422 1421 1420 1419 1418 1417 1416 1415 1414 1412 1411